{"data":{"norad_id":59067,"epoch":"2026-09-19T23:28:51.851424Z","epoch_age_seconds":59766,"freshness":"FRESH","line1":"1 59067U 24039S   26262.97837791  .00002517  00000+0  19618-3 0  9996","line2":"2 59067  95.3816 300.0785 0143416 357.9560   2.1061 14.93842222138861","mean_motion":14.93842222,"eccentricity":0.0143416,"inclination_deg":95.3816,"raan_deg":300.0785,"arg_perigee_deg":357.956,"mean_anomaly_deg":2.1061,"bstar":0.00019618,"rev_number":13886,"period_min":96.395722305404,"perigee_km":486.09228783391,"apogee_km":685.84512462686,"semimajor_km":6964.1057062304,"source":"CELESTRAK","updated_at":"2026-09-20T09:00:48.038204Z"}}